When you browse on this site, cookies collect data to enhance your experience and personalize the content and advertising you see.
Visit our Privacy Policy to learn more. By continuing to use the site, you agree to this use of cookies and data.
  • In United Kingdom
  • List of Countries
  • For 7 days
  • Water Temperature
  • Weather Map
  • Weather Widgets
  • user-avatar
    Login

    Hourly Weather Nowa Dęba

    Today, 25 August, Sunday

    Time Temperature Precipitation Wind Pressure Humidity
    00:00 +18°C° 0 mm 3 mps 752 mmHg 76%
    01:00 +18°C° 0 mm 3 mps 752 mmHg 77%
    02:00 +18°C° 0 mm 3 mps 752 mmHg 77%
    03:00 +17°C° 0 mm 3 mps 752 mmHg 77%
    04:00 +17°C° 0 mm 3 mps 752 mmHg 77%
    05:00 +18°C° 0 mm 3 mps 752 mmHg 75%
    06:00 +19°C° 0 mm 4 mps 752 mmHg 73%
    07:00 +20°C° 0 mm 4 mps 752 mmHg 70%
    08:00 +22°C° 0 mm 4 mps 752 mmHg 66%
    09:00 +23°C° 0 mm 4 mps 752 mmHg 63%
    10:00 +26°C° 0 mm 4 mps 752 mmHg 60%
    11:00 +27°C° 0 mm 4 mps 752 mmHg 58%
    12:00 +28°C° 0 mm 5 mps 752 mmHg 57%
    13:00 +29°C° 0 mm 4 mps 752 mmHg 55%
    14:00 +29°C° 0 mm 4 mps 751 mmHg 56%
    15:00 +29°C° 0 mm 4 mps 751 mmHg 57%
    16:00 +29°C° 0 mm 4 mps 751 mmHg 59%
    17:00 +27°C° 0 mm 4 mps 751 mmHg 65%
    18:00 +26°C° 0 mm 3 mps 751 mmHg 72%
    19:00 +24°C° 0 mm 3 mps 751 mmHg 78%
    20:00 +22°C° 0 mm 3 mps 751 mmHg 79%
    21:00 +21°C° 0 mm 3 mps 751 mmHg 80%
    22:00 +21°C° 0 mm 4 mps 751 mmHg 81%
    23:00 +20°C° 0 mm 4 mps 751 mmHg 81%

    Tomorrow, 26 August, Monday

    Time Temperature Precipitation Wind Pressure Humidity
    00:00 +20°C° 0 mm 4 mps 752 mmHg 82%
    01:00 +19°C° 0 mm 4 mps 752 mmHg 82%
    02:00 +19°C° 0 mm 4 mps 751 mmHg 84%
    03:00 +19°C° 0 mm 4 mps 751 mmHg 85%
    04:00 +18°C° 0 mm 3 mps 751 mmHg 86%
    05:00 +19°C° 0 mm 3 mps 751 mmHg 83%
    06:00 +20°C° 0 mm 3 mps 751 mmHg 81%
    07:00 +20°C° 0 mm 4 mps 751 mmHg 78%
    08:00 +22°C° 0 mm 4 mps 751 mmHg 73%
    09:00 +25°C° 0 mm 4 mps 751 mmHg 68%
    10:00 +27°C° 0 mm 4 mps 751 mmHg 63%
    11:00 +28°C° 0 mm 4 mps 751 mmHg 60%
    12:00 +29°C° 0 mm 4 mps 751 mmHg 56%
    13:00 +30°C° 0 mm 4 mps 751 mmHg 53%
    14:00 +30°C° 0 mm 3 mps 751 mmHg 55%
    15:00 +30°C° 0 mm 3 mps 750 mmHg 56%
    16:00 +30°C° 0 mm 3 mps 750 mmHg 58%
    17:00 +28°C° 0 mm 3 mps 750 mmHg 65%
    18:00 +26°C° 0 mm 3 mps 750 mmHg 71%
    19:00 +24°C° 0 mm 2 mps 750 mmHg 78%
    20:00 +24°C° 0 mm 3 mps 750 mmHg 79%
    21:00 +22°C° 0 mm 3 mps 750 mmHg 81%
    22:00 +21°C° 0 mm 3 mps 750 mmHg 82%
    23:00 +21°C° 0 mm 3 mps 750 mmHg 81%

    Day after tomorrow, 27 August, Tuesday

    Time Temperature Precipitation Wind Pressure Humidity
    00:00 +20°C° 0 mm 3 mps 750 mmHg 80%
    01:00 +20°C° 0 mm 3 mps 750 mmHg 80%
    02:00 +19°C° 0 mm 3 mps 750 mmHg 79%
    03:00 +19°C° 0 mm 3 mps 750 mmHg 78%
    04:00 +19°C° 0 mm 3 mps 750 mmHg 77%
    05:00 +19°C° 0 mm 3 mps 750 mmHg 74%
    06:00 +20°C° 0 mm 3 mps 750 mmHg 70%
    07:00 +21°C° 0 mm 4 mps 750 mmHg 67%
    08:00 +23°C° 0 mm 4 mps 750 mmHg 62%
    09:00 +26°C° 0 mm 4 mps 751 mmHg 58%
    10:00 +28°C° 0 mm 4 mps 751 mmHg 53%
    11:00 +29°C° 0 mm 4 mps 751 mmHg 50%
    12:00 +30°C° 0 mm 5 mps 750 mmHg 46%
    13:00 +32°C° 0 mm 5 mps 750 mmHg 43%
    14:00 +32°C° 0 mm 5 mps 750 mmHg 45%
    15:00 +32°C° 0 mm 4 mps 750 mmHg 47%
    16:00 +30°C° 0 mm 4 mps 750 mmHg 49%
    17:00 +28°C° 0 mm 4 mps 750 mmHg 55%
    18:00 +26°C° 0 mm 4 mps 750 mmHg 62%
    19:00 +25°C° 0 mm 3 mps 750 mmHg 68%
    20:00 +24°C° 0 mm 3 mps 750 mmHg 70%
    21:00 +22°C° 0 mm 3 mps 750 mmHg 71%
    22:00 +21°C° 0 mm 3 mps 750 mmHg 72%
    23:00 +21°C° 0 mm 3 mps 750 mmHg 72%

    28 August, Wednesday

    Time Temperature Precipitation Wind Pressure Humidity
    00:00 +20°C° 0 mm 3 mps 750 mmHg 73%
    01:00 +20°C° 0 mm 4 mps 750 mmHg 73%
    02:00 +19°C° 0 mm 3 mps 750 mmHg 73%
    03:00 +19°C° 0 mm 3 mps 750 mmHg 73%
    04:00 +18°C° 0 mm 3 mps 749 mmHg 73%
    05:00 +19°C° 0 mm 3 mps 749 mmHg 72%
    06:00 +20°C° 0 mm 3 mps 749 mmHg 70%
    07:00 +21°C° 0 mm 3 mps 749 mmHg 68%
    08:00 +24°C° 0 mm 3 mps 749 mmHg 63%
    09:00 +26°C° 0 mm 3 mps 749 mmHg 59%
    10:00 +28°C° 0 mm 3 mps 749 mmHg 54%
    11:00 +29°C° 0 mm 3 mps 749 mmHg 51%
    12:00 +30°C° 0 mm 3 mps 749 mmHg 49%
    13:00 +31°C° 0 mm 3 mps 749 mmHg 46%
    14:00 +31°C° 0 mm 3 mps 749 mmHg 48%
    15:00 +31°C° 0 mm 3 mps 748 mmHg 50%
    16:00 +32°C° 0 mm 4 mps 748 mmHg 51%
    17:00 +29°C° 0.1 mm 3 mps 748 mmHg 58%
    18:00 +27°C° 0.1 mm 3 mps 748 mmHg 64%
    19:00 +25°C° 0.1 mm 3 mps 748 mmHg 71%
    20:00 +24°C° 0.1 mm 3 mps 748 mmHg 73%
    21:00 +22°C° 0.1 mm 3 mps 748 mmHg 76%
    22:00 +21°C° 0.1 mm 3 mps 748 mmHg 78%
    23:00 +20°C° 0 mm 2 mps 748 mmHg 79%

    29 August, Thursday

    Time Temperature Precipitation Wind Pressure Humidity
    00:00 +20°C° 0 mm 2 mps 748 mmHg 79%
    01:00 +19°C° 0 mm 2 mps 748 mmHg 79%
    02:00 +19°C° 0 mm 2 mps 748 mmHg 79%
    03:00 +18°C° 0 mm 2 mps 748 mmHg 79%
    04:00 +18°C° 0 mm 2 mps 748 mmHg 79%
    05:00 +19°C° 0 mm 2 mps 747 mmHg 76%
    06:00 +20°C° 0 mm 2 mps 747 mmHg 73%
    07:00 +21°C° 0 mm 2 mps 747 mmHg 71%
    08:00 +24°C° 0 mm 2 mps 748 mmHg 66%
    09:00 +26°C° 0 mm 2 mps 748 mmHg 61%
    10:00 +28°C° 0 mm 2 mps 748 mmHg 55%
    11:00 +29°C° 0 mm 2 mps 748 mmHg 53%
    12:00 +30°C° 0 mm 2 mps 747 mmHg 50%
    13:00 +31°C° 0 mm 2 mps 747 mmHg 47%
    14:00 +31°C° 0 mm 2 mps 747 mmHg 48%
    15:00 +31°C° 0 mm 3 mps 747 mmHg 49%
    16:00 +31°C° 0 mm 3 mps 746 mmHg 50%
    17:00 +29°C° 0.2 mm 3 mps 747 mmHg 57%
    18:00 +27°C° 0.2 mm 3 mps 747 mmHg 65%
    19:00 +24°C° 0.2 mm 2 mps 747 mmHg 72%
    20:00 +23°C° 0.5 mm 2 mps 747 mmHg 78%
    21:00 +21°C° 0.5 mm 2 mps 747 mmHg 84%
    22:00 +20°C° 0.5 mm 2 mps 747 mmHg 89%
    23:00 +20°C° 0 mm 2 mps 747 mmHg 89%

    30 August, Friday

    Time Temperature Precipitation Wind Pressure Humidity
    00:00 +20°C° 0 mm 1 mps 747 mmHg 89%
    01:00 +18°C° 0 mm 0 mps 747 mmHg 88%
    02:00 +20°C° 0 mm 1 mps 747 mmHg 89%
    03:00 +19°C° 0 mm 1 mps 747 mmHg 89%
    04:00 +19°C° 0 mm 1 mps 746 mmHg 90%
    05:00 +20°C° 0 mm 1 mps 747 mmHg 87%
    06:00 +21°C° 0 mm 1 mps 747 mmHg 83%
    07:00 +22°C° 0 mm 1 mps 747 mmHg 80%
    08:00 +23°C° 0 mm 1 mps 748 mmHg 75%
    09:00 +25°C° 0 mm 1 mps 748 mmHg 69%
    10:00 +26°C° 0 mm 2 mps 748 mmHg 64%
    11:00 +28°C° 0.1 mm 1 mps 748 mmHg 59%
    12:00 +29°C° 0.1 mm 1 mps 748 mmHg 55%
    13:00 +28°C° 0.1 mm 0 mps 748 mmHg 51%
    14:00 +29°C° 0.6 mm 1 mps 748 mmHg 55%
    15:00 +29°C° 0.6 mm 2 mps 748 mmHg 59%
    16:00 +28°C° 0.6 mm 3 mps 748 mmHg 62%
    17:00 +26°C° 1 mm 2 mps 748 mmHg 70%
    18:00 +24°C° 1 mm 2 mps 748 mmHg 78%
    19:00 +23°C° 1 mm 1 mps 748 mmHg 86%
    20:00 +22°C° 0.1 mm 1 mps 748 mmHg 87%
    21:00 +22°C° 0.1 mm 1 mps 748 mmHg 89%
    22:00 +22°C° 0.1 mm 1 mps 748 mmHg 90%
    23:00 +21°C° 0.2 mm 1 mps 748 mmHg 91%
    Show more